Effective Sunday, March 17, 2024, the National Weather Service National Data Buoy Center will discontinue its Dial-A-Buoy Interactive Voice Response system. For more information, see Service Change Notice 24-06 (PDF).

Station HRBM4 - 9075014 - Harbor Beach, MI Image indicating link to RSS feed of recent meteorological observations for station HRBM4


Conditions at HRBM4 as of
(10:18 pm EST on 03/02/2024)
0318 GMT on 03/03/2024:
     

Click on the graph icon in the table below to see a time series plot of the last five days of that observation.

5-day plot - Wind Direction Wind Direction (WDIR): S ( 170 deg true )
5-day plot - Wind Speed Wind Speed (WSPD): 5.1 kts
5-day plot - Wind Gust Wind Gust (GST): 6.0 kts
5-day plot - Atmospheric Pressure Atmospheric Pressure (PRES):30.08 in
5-day plot - Air Temperature Air Temperature (ATMP): 37.6 °F
5-day plot - Water Temperature Water Temperature (WTMP): 39.7 °F
5-day plot - Dew Point Dew Point (DEWP): 36.1 °F
5-day plot - Wind Chill Wind Chill (CHILL): 33.1 °F
5-day plot - Wind Speed at 10 Meters Wind Speed at 10 meters (WSPD10M): 3.9 kts
5-day plot - Wind Speed at 20 Meters Wind Speed at 20 meters (WSPD20M): 3.9 kts
5-day plot -  Wind Speed, Wind Gust and Atmospheric Pressure Combined plot of Wind Speed, Gust, and Air Pressure
NOS Water Level Observation Network Water Level
Previous observations
TIME
(EST)
5-day plot - Wind Direction
WDIR
 
5-day plot - Wind Speed
WSPD
kts
5-day plot - Wind Gust
GST
kts
5-day plot - Wave Height
WVHT
ft
5-day plot - Dominant Wave Period
DPD
sec
5-day plot - Average Wave Period
APD
sec
5-day plot - Mean Wave Direction
MWD
 
5-day plot - Atmospheric Pressure
PRES
in
5-day plot - Pressure Tendency
PTDY
in
5-day plot - Air Temperature
ATMP
°F
5-day plot - Water Temperature
WTMP
°F
5-day plot - Dew Point
DEWP
°F
5-day plot - Salinity
SAL
psu
5-day plot - Visibility
VIS
nmi
5-day plot - Tide (above MLLW)
TIDE
ft
2024-03-02 10:12 pm S 6.0 7.0----30.09- 37.8 39.7 36.3---
2024-03-02 10:06 pm S 6.0 6.0----30.09- 37.6 39.7 36.1---
2024-03-02 10:00 pm S 5.1 6.0----30.09+0.01 37.8 39.7 36.3---
2024-03-02 09:54 pm S 6.0 7.0----30.09- 38.7 39.7 37.2---
2024-03-02 09:48 pm S 5.1 6.0----30.09- 38.1 39.7 36.5---
2024-03-02 09:42 pmSSE 6.0 6.0----30.08- 37.8 39.7 36.0---
2024-03-02 09:36 pmSSE 5.1 6.0----30.09- 38.3 39.7 36.5---
2024-03-02 09:30 pm S 6.0 7.0----30.08- 38.8 39.7 37.0---
2024-03-02 09:24 pm S 6.0 8.0----30.09- 39.0 39.7 37.0---
2024-03-02 09:18 pm S 7.0 8.0----30.08- 39.2 39.7 37.2---
2024-03-02 09:12 pm S 8.0 8.9----30.08- 39.2 39.7 37.2---
2024-03-02 09:06 pm S 8.0 9.9----30.08- 39.4 39.7 37.4---
2024-03-02 09:00 pm S 8.0 8.9----30.09+0.02 39.6 39.7 37.6---
2024-03-02 08:54 pm S 7.0 8.9----30.09- 39.4 39.7 37.4---
2024-03-02 08:48 pm S 6.0 7.0----30.08- 38.8 39.7 36.9---
2024-03-02 08:42 pmSSE 6.0 9.9----30.08- 38.7 39.7 36.7---
2024-03-02 08:36 pm S 8.0 8.9----30.08- 39.7 39.7 37.8---
2024-03-02 08:30 pm S 8.0 8.9----30.08- 39.6 39.7 37.6---
2024-03-02 08:24 pm S 7.0 8.0----30.08- 39.2 39.7 37.4---
2024-03-02 08:18 pm S 7.0 8.9----30.08- 39.0 39.7 37.2---
2024-03-02 08:12 pm S 8.0 8.9----30.08- 39.0 39.7 37.2---
2024-03-02 08:06 pm S 8.0 9.9----30.08- 38.5 39.7 36.7---
2024-03-02 08:00 pm S 8.0 11.1----30.08+0.03 38.3 39.7 36.5---
2024-03-02 07:54 pm S 8.0 9.9----30.08- 38.5 39.7 36.5---
2024-03-02 07:48 pm S 8.9 9.9----30.08- 38.3 39.7 36.3---
2024-03-02 07:42 pm S 8.9 11.1----30.08- 38.7 39.7 36.9---
2024-03-02 07:36 pm S 9.9 12.0----30.08- 38.7 39.7 36.9---
2024-03-02 07:30 pm S 9.9 12.0----30.08- 38.7 39.7 36.9---
2024-03-02 07:24 pmSSE 11.1 13.0----30.07- 37.9 39.7 36.1---
2024-03-02 07:18 pmSSE 9.9 12.0----30.07- 37.6 39.7 35.8---
2024-03-02 07:12 pmSSE 9.9 12.0----30.07- 37.4 39.7 35.6---
2024-03-02 07:06 pmSSE 11.1 12.0----30.07- 37.0 39.7 35.2---
2024-03-02 07:00 pmSSE 9.9 12.0----30.07+0.03 37.6 39.7 35.8---
2024-03-02 06:54 pmSSE 11.1 12.0----30.08- 37.8 39.7 36.0---
2024-03-02 06:48 pmSSE 8.9 11.1----30.07-- 39.7----
2024-03-02 06:42 pmSSE 8.9 11.1----30.07-- 39.7----
2024-03-02 06:36 pmSSE 9.9 12.0----30.07-- 39.7----
2024-03-02 06:30 pmSSE 8.9 11.1----30.07- 36.9 39.7 34.9---
2024-03-02 06:24 pmSSE 9.9 12.0----30.07- 37.0 39.7 34.9---
2024-03-02 06:00 pmSSE 12.0 13.0----30.06- 38.1 39.7 35.4---
2024-03-02 05:54 pmSSE 11.1 12.0----30.06- 37.9 39.7 35.2---
2024-03-02 05:48 pmSSE 11.1 12.0----30.06- 37.8 39.7 35.1---
2024-03-02 05:42 pmSSE 11.1 12.0----30.06- 38.1 39.7 35.4---
2024-03-02 05:36 pmSSE 8.9 12.0----30.06- 38.3 39.7 35.8---
2024-03-02 05:30 pmSSE 9.9 11.1----30.06-- 39.7----
2024-03-02 05:24 pmSSE 11.1 12.0----30.06-- 39.7----
2024-03-02 05:18 pmSSE 11.1 12.0----30.06-- 39.7----
2024-03-02 05:12 pmSSE 9.9 12.0----30.05-- 39.7----
2024-03-02 05:06 pmSSE 9.9 13.0----30.05-- 39.7----
2024-03-02 05:00 pmSSE 12.0 15.0----30.05-0.02 38.7 39.7 35.6---
2024-03-02 04:54 pmSSE 12.0 15.0----30.05- 39.4 39.7 36.7---
2024-03-02 04:48 pmSSE 12.0 14.0----30.05- 38.7 39.7 36.5---
2024-03-02 04:42 pmSSE 12.0 14.0----30.05- 39.0 39.7 37.4---
2024-03-02 04:36 pmSSE 11.1 13.0----30.05- 38.7 39.7 37.4---
2024-03-02 04:30 pmSSE 9.9 12.0----30.05- 37.4- 36.3---
2024-03-02 04:24 pmSSE 9.9 11.1----30.05- 36.5- 35.4---
2024-03-02 04:18 pmSSE 8.9 9.9----30.05- 36.1 39.7 35.2---
2024-03-02 04:12 pmSSE 8.9 11.1----30.05- 36.1 39.7 35.2---
2024-03-02 04:06 pmSSE 11.1 13.0----30.04- 36.3 39.7 35.2---
2024-03-02 04:00 pmSSE 13.0 14.0----30.05-0.02 36.9 39.7 35.8---
2024-03-02 03:54 pmSSE 12.0 14.0----30.05- 36.9 39.7 35.8---
2024-03-02 03:48 pmSSE 13.0 14.0----30.05-- 39.7----
2024-03-02 03:42 pmSSE 12.0 13.0----30.05-- 39.7----
2024-03-02 03:36 pmSSE 11.1 12.0----30.05-- 39.7----
2024-03-02 03:30 pmSSE 11.1 12.0----30.05- 36.9 39.7 36.0---
2024-03-02 03:24 pmSSE 9.9 11.1----30.05- 36.5 39.7 35.6---
2024-03-02 03:18 pmSSE 11.1 12.0----30.05- 36.7 39.7 35.8---
2024-03-02 03:12 pmSSE 11.1 12.0----30.05- 36.3 39.7 35.4---
2024-03-02 03:06 pmSSE 9.9 11.1----30.05- 36.1 39.7 35.2---
2024-03-02 03:00 pm--------- 36.1-----
2024-03-02 02:54 pm--------- 36.1-----
2024-03-02 02:48 pmSSE 11.1 12.0----30.05- 36.1 39.7 35.1---
2024-03-02 02:42 pmSSE 9.9 11.1----30.06- 36.3 39.7 35.2---
2024-03-02 02:36 pmSSE 8.9 11.1----30.06- 36.1 39.7 35.1---
2024-03-02 02:30 pm SE 8.9 11.1----30.06- 36.1 39.7 35.1---
2024-03-02 02:24 pmSSE 9.9 11.1----30.06- 36.1 39.7 35.1---
2024-03-02 02:18 pm SE 8.0 8.9----30.06- 36.3 39.7 35.2---
2024-03-02 02:12 pm SE 7.0 8.0----30.07- 36.1 39.7 35.1---
2024-03-02 02:06 pm SE 8.0 8.9----30.07- 36.3 39.7 35.1---
2024-03-02 02:00 pm SE 8.0 8.9----30.07-0.01 36.7 39.7 35.4---
2024-03-02 01:54 pmSSE 8.9 9.9----30.07- 36.7 39.7 35.4---
2024-03-02 01:48 pmSSE 8.9 11.1----30.06- 36.5 39.7 35.2---
2024-03-02 01:42 pmSSE 8.9 11.1----30.06- 36.3 39.7 35.1---
2024-03-02 01:36 pmSSE 8.9 11.1----30.06- 36.1 39.7 34.9---
2024-03-02 01:30 pmSSE 9.9 11.1----30.06- 36.0 39.7 34.5---
2024-03-02 01:24 pm SE 8.9 9.9----30.06- 35.8 39.7 34.3---
2024-03-02 01:18 pm SE 9.9 9.9----30.06- 35.8 39.7 34.2---
2024-03-02 01:12 pm SE 9.9 11.1----30.06- 36.0 39.7 34.3---
2024-03-02 01:06 pm SE 9.9 9.9----30.06- 36.0 39.7 34.3---
2024-03-02 01:00 pmSSE 8.9 9.9----30.07-0.02 36.1 39.7 34.5---
2024-03-02 12:54 pm SE 8.9 9.9----30.07- 36.1 39.7 34.5---
2024-03-02 12:48 pmSSE 9.9 11.1----30.07- 36.0 39.7 34.3---
2024-03-02 12:42 pmSSE 9.9 12.0----30.07- 36.0 39.7 34.3---
2024-03-02 12:36 pmSSE 11.1 12.0----30.07- 36.0 39.7 34.2---
2024-03-02 12:30 pmSSE 8.9 9.9----30.07- 35.8 39.7 34.0---
2024-03-02 12:24 pm SE 9.9 11.1----30.07- 35.8 39.7 33.8---
2024-03-02 12:18 pm SE 9.9 11.1----30.07- 35.8 39.7 33.6---
2024-03-02 12:12 pm SE 8.9 11.1----30.07- 36.0 39.7 33.8---
2024-03-02 12:06 pmSSE 9.9 11.1----30.07- 36.1 39.7 34.0---
2024-03-02 12:00 pm SE 8.9 9.9----30.07-0.01 36.1 39.7 34.0---
2024-03-02 11:54 amSSE 8.9 9.9----30.08- 37.4 39.7 35.1---
2024-03-02 11:48 amSSE 8.9 9.9----30.08- 36.7 39.7 34.5---
2024-03-02 11:42 amSSE 9.9 11.1----30.08- 36.1 39.7 34.2---
2024-03-02 11:36 amSSE 11.1 11.1----30.08- 36.0 39.7 33.8---
2024-03-02 11:30 am SE 9.9 11.1----30.08- 36.0 39.7 33.8---
2024-03-02 11:24 amSSE 8.9 9.9----30.08- 36.1 39.7 34.0---
2024-03-02 11:18 am SE 8.9 9.9----30.08- 36.0 39.7 33.8---
2024-03-02 11:12 am SE 7.0 8.9----30.08- 36.5 39.7 34.2---
2024-03-02 11:06 am SE 7.0 8.9----30.08- 36.0 39.7 33.8---
2024-03-02 11:00 amSSE 8.0 9.9----30.08+0.00 36.0 39.7 33.8---
2024-03-02 10:54 amSSE 8.9 9.9----30.08- 36.0 39.7 33.8---
2024-03-02 10:48 amSSE 8.9 9.9----30.09- 35.8 39.7 33.6---
2024-03-02 10:42 amSSE 8.9 8.9----30.08- 35.8 39.7 33.6---
2024-03-02 10:36 amSSE 8.9 8.9----30.08- 35.8 39.7 33.6---
2024-03-02 10:30 amSSE 7.0 8.0----30.09-- 39.7----
2024-03-02 10:24 amSSE 8.0 8.9----30.09-- 39.7----
2024-03-02 10:18 amSSE 8.0 8.0----30.09- 36.0 39.7 33.4---
2024-03-02 10:12 amSSE 8.0 9.9----30.09- 36.1 39.7 33.6---
2024-03-02 10:06 amSSE 8.0 8.9----30.09- 36.3 39.7 34.0---
2024-03-02 10:00 amSSE 8.0 9.9----30.09+0.01 35.6 39.7 33.3---
2024-03-02 09:54 amSSE 9.9 9.9----30.08- 35.1 39.7 32.5---
2024-03-02 09:48 amSSE 8.9 9.9----30.07- 35.2 39.7 32.4---
2024-03-02 09:42 amSSE 8.0 8.9----30.07- 35.4 39.7 32.4---
2024-03-02 09:36 am SE 8.0 8.0----30.07- 35.4 39.7 31.8---
2024-03-02 09:30 am SE 8.0 8.0----30.07- 35.6 39.7 31.5---
2024-03-02 09:24 am SE 6.0 7.0----30.08- 36.3 39.7 31.6---
2024-03-02 09:18 am SE 4.1 5.1----30.08- 36.5 39.7 31.1---
2024-03-02 09:12 am S 5.1 7.0----30.08- 38.5 39.9 32.2---
2024-03-02 09:06 am S 5.1 6.0----30.08- 38.3 39.9 31.8---
2024-03-02 09:00 am S 5.1 6.0----30.08+0.01 38.3 39.9 31.8---
2024-03-02 08:54 am S 5.1 6.0----30.09- 38.3 39.9 31.6---
2024-03-02 08:48 amSSW 5.1 7.0----30.09- 38.3 39.7 31.5---
2024-03-02 08:42 amSSW 5.1 7.0----30.09- 38.1 39.7 31.3---
2024-03-02 08:36 amSSW 5.1 6.0----30.09- 37.9 39.7 30.9---
2024-03-02 08:30 amSSW 5.1 5.1----30.09- 37.8 39.7 30.7---
2024-03-02 08:24 amSSW 5.1 5.1----30.09- 37.9 39.7 30.7---
2024-03-02 08:18 amSSW 4.1 5.1----30.09- 37.8 39.7 30.6---
2024-03-02 08:12 amSSW 4.1 5.1----30.09- 37.8 39.7 30.6---
2024-03-02 08:06 amSSW 2.9 5.1----30.09- 37.8 39.7 30.6---
2024-03-02 08:00 am S 4.1 5.1----30.09+0.02 37.6 39.7 30.4---
2024-03-02 07:54 amSSW 4.1 5.1----30.09- 37.6 39.9 30.4---
2024-03-02 07:48 amSSW 2.9 4.1----30.09-- 39.9----
2024-03-02 07:42 amSSW 2.9 4.1----30.08-- 39.7----
2024-03-02 07:36 amSSW 2.9 4.1----30.08-- 39.7----
2024-03-02 07:30 amSSW 1.9 2.9----30.08- 37.2 39.7 30.6---
2024-03-02 07:24 am S 2.9 4.1----30.08- 37.2 39.7 30.6---
2024-03-02 07:18 amSSW 4.1 5.1----30.08- 37.4 39.7 30.6---
2024-03-02 07:12 am S 5.1 6.0----30.08- 37.4 39.9 30.6---
2024-03-02 07:06 am S 5.1 6.0----30.08- 37.4 39.7 30.4---
2024-03-02 07:00 am S 6.0 7.0----30.08+0.00 37.6 39.7 30.6---
2024-03-02 06:54 am S 6.0 7.0----30.07- 37.4 39.7 30.6---
2024-03-02 06:48 am S 6.0 7.0----30.07- 37.4 39.7 30.4---
2024-03-02 06:42 am S 7.0 8.0----30.07- 37.6 39.7 30.2---
2024-03-02 06:36 am S 6.0 8.0----30.07- 37.8 39.9 30.4---
2024-03-02 06:30 am-------30.07-------
2024-03-02 06:24 am-------30.07-------
2024-03-02 06:18 am S 7.0 8.0----30.07- 37.8 39.9 32.0---
2024-03-02 06:12 am S 5.1 6.0----30.07- 36.7 39.9 32.4---
2024-03-02 06:06 am S 5.1 6.0----30.07- 36.5 39.9 32.2---
2024-03-02 06:00 am S 5.1 6.0----30.07-0.02- 39.9----
2024-03-02 05:54 am S 6.0 8.0----30.07-- 39.9----
2024-03-02 05:48 am---------- 39.9----
2024-03-02 05:42 am---------- 39.9----
2024-03-02 05:36 am---------- 39.9----
2024-03-02 05:30 am S 6.0 8.0----30.07- 37.2 39.9 32.7---
2024-03-02 05:24 amSSE 7.0 8.9----30.07- 36.5 39.7 33.1---
2024-03-02 05:18 amSSE 8.9 9.9----30.07-- 39.7----
2024-03-02 05:12 amSSE 9.9 9.9----30.07-- 39.7----
2024-03-02 05:06 amSSE 8.9 9.9----30.07-- 39.7----
2024-03-02 05:00 amSSE 8.9 9.9----30.07-0.02 35.8 39.7 32.5---
2024-03-02 04:54 amSSE 8.9 9.9----30.07- 35.6 39.7 32.2---
2024-03-02 04:48 amSSE 8.9 9.9----30.07- 35.4 39.7 31.8---
2024-03-02 04:42 amSSE 8.0 8.9----30.07- 35.6 39.7 31.5---
2024-03-02 04:36 amSSE 6.0 7.0----30.07- 36.3 39.7 31.5---
2024-03-02 04:30 amSSE 5.1 6.0----30.07- 37.2 39.9 31.5---
2024-03-02 04:24 am S 4.1 5.1----30.08- 37.9 39.9 31.8---
2024-03-02 04:18 am S 2.9 5.1----30.08- 37.8 39.9 32.2---
2024-03-02 04:12 am S 4.1 5.1----30.08- 37.6 39.9 32.5---
2024-03-02 04:06 am S 4.1 5.1----30.08- 37.0 39.9 32.0---
2024-03-02 04:00 am S 2.9 5.1----30.08-0.01 37.6 39.7 32.5---
2024-03-02 03:54 am S 4.1 5.1----30.08- 37.0 39.7 32.2---
2024-03-02 03:48 am S 5.1 6.0----30.08- 37.2 39.7 32.0---
2024-03-02 03:42 amSSE 6.0 7.0----30.07- 37.2 39.7 31.6---
2024-03-02 03:36 am S 7.0 8.0----30.08- 37.9 39.7 32.2---
2024-03-02 03:30 am S 8.0 9.9----30.08- 37.8 39.7 32.4---
2024-03-02 03:24 amSSE 8.9 9.9----30.08- 37.0 39.7----
2024-03-02 03:18 am S 7.0 9.9----30.08- 37.2 39.7----
2024-03-02 03:12 am S 7.0 8.9----30.08- 37.8 39.7----
2024-03-02 03:06 am S 7.0 8.9----30.08- 38.5 39.7----
2024-03-02 03:00 amSSE 7.0 8.9----30.09+0.00 37.4 39.7----
2024-03-02 02:54 am S 7.0 8.9----30.09- 38.1 39.7----
2024-03-02 02:48 am S 8.0 8.9----30.09- 37.9 39.7----
2024-03-02 02:42 amSSE 8.9 9.9----30.09- 36.9 39.7----
2024-03-02 02:36 amSSE 7.0 8.0----30.09- 37.8 39.7----
2024-03-02 02:30 amSSE 7.0 8.0----30.09- 37.0-----
2024-03-02 02:24 amSSE 7.0 7.0----30.09- 37.2-----
2024-03-02 02:18 am S 6.0 7.0----30.10- 38.1 39.7----
2024-03-02 02:12 amSSE 7.0 8.0----30.09- 37.0 39.7----
2024-03-02 02:06 am S 6.0 8.0----30.09- 38.3 39.9----
2024-03-02 02:00 am S 7.0 8.9----30.09-0.01 38.1 39.9----
2024-03-02 01:54 am S 7.0 8.9----30.09- 38.3 39.9----
2024-03-02 01:48 am S 7.0 8.9----30.09- 38.1 39.9----
2024-03-02 01:42 am S 7.0 8.9----30.09- 38.1 39.9----
2024-03-02 01:36 am S 8.0 8.9----30.09- 38.3 39.9----
2024-03-02 01:30 am S 8.0 9.9----30.09- 38.1 39.9----
2024-03-02 01:24 am S 8.9 11.1----30.09- 38.1 40.1----
2024-03-02 01:18 am S 9.9 11.1----30.09- 38.1-----
2024-03-02 01:12 am S 9.9 12.0----30.09- 38.3-----
2024-03-02 01:06 am S 8.9 12.0----30.09- 38.3-----
2024-03-02 01:00 am S 9.9 12.0----30.09-0.01 38.5 40.1----
2024-03-02 12:54 am S 9.9 12.0----30.09- 38.7 39.9----
2024-03-02 12:48 am S 8.9 12.0----30.09- 38.5 39.9----
2024-03-02 12:42 amSSE 8.9 9.9----30.09- 37.8 39.9----
2024-03-02 12:36 am S 8.0 12.0----30.09- 38.3 39.9----
2024-03-02 12:30 amSSE 11.1 13.0----30.09- 37.4 39.9----
2024-03-02 12:24 am S 8.0 11.1----30.09- 39.0 39.9----
2024-03-02 12:18 am S 9.9 13.0----30.09- 39.2 39.9----
2024-03-02 12:12 am S 11.1 14.0----30.09- 39.2 39.9----
2024-03-02 12:06 am S 11.1 15.9----30.09- 39.2 39.9----
2024-03-02 12:00 am S 12.0 15.9----30.09-0.03 39.4 39.9----
2024-03-01 11:54 pm S 13.0 17.1----30.09- 39.4 39.9----
2024-03-01 11:48 pm S 15.0 19.0----30.09- 39.7 39.9----
2024-03-01 11:42 pm S 13.0 17.1----30.09- 39.7 39.9----
2024-03-01 11:36 pm S 12.0 17.1----30.09- 39.7 39.9----
2024-03-01 11:30 pm S 13.0 15.9----30.09- 39.7 39.9----
2024-03-01 11:24 pm S 13.0 17.1----30.09- 39.9 39.9----
2024-03-01 11:18 pm S 13.0 19.0----30.10- 39.7 39.9----
2024-03-01 11:12 pm S 12.0 17.1----30.10- 39.6 39.9----
2024-03-01 11:06 pm S 11.1 14.0----30.10- 39.4 39.9----
2024-03-01 11:00 pm S 9.9 14.0----30.10-0.03 39.4 39.9----
2024-03-01 10:54 pm S 11.1 14.0----30.10- 39.2 39.9----